Location: Fiennes
(50.8274°N, 1.8253°E)
Time: 22:19:11
(UTC+00:00)

Cosmos 1842 - Pass Details

Date: 15 May 2026
Orbit: 395 x 397 km, 82.5° (Epoch: 11 June)

Event Time Altitude Azimuth Distance (km) Brightness Sun altitude
Exits shadow 23:31:14 24° 270° (W) 871 4.3 -20.0°
Maximum altitude 23:31:46 26° 288° (WNW) 838 4.4 -20.0°
Drops below altitude 10° 23:34:28 10° 347° (NNW) 1,451 6.7 -20.0°
Sets 23:36:42 0° 1° (N) 2,315 8.1 -20.1°
